Milford, UT

10:06 AM MST on December 04, 2016 (GMT -0700)
Milford Municipal

Weather History for KMLF - November, 2013

Change the Weather History Date:

Saturday, November 2, 2013

  Actual Average Record
Temperature  
Mean Temperature 46 °F -  
Max Temperature 68 °F 53 °F 69 °F (1999)
Min Temperature 23 °F 25 °F 12 °F (2002)
Degree Days  
Heating Degree Days 20    
Moisture  
Dew Point 17 °F    
Average Humidity 39    
Maximum Humidity 77    
Minimum Humidity 4    
Precipitation  
Precipitation 0.00 in - - ()
Sea Level Pressure  
Sea Level Pressure 30.02 in    
Wind  
Wind Speed 12 mph (SSW)    
Max Wind Speed 25 mph    
Max Gust Speed 30 mph    
Visibility 10 miles    
Events      
Averages and records for this station are not official NWS values.
T = Trace of Precipitation, MM = Missing Value Source: NWS Daily Summary

Daily Weather History Graph

Daily Weather History Graph

Search for Another Location

Airport or City:

Trip Planner

Search our weather history database for the weather conditions in past years. The results will help you decide how hot, cold, wet, or windy it might be!

Date:

Astronomy

Nov. 02, 2013 Rise Set
Actual Time 7:59 AM MDT 6:30 PM MDT
Civil Twilight 7:32 AM MDT 6:58 PM MDT
Nautical Twilight 7:00 AM MDT 7:29 PM MDT
Astronomical Twilight 6:30 AM MDT 8:00 PM MDT
Moon 7:01 AM MDT (11/2) 6:04 PM MDT (11/2)
Length of Visible Light 11h 25m
Length of Day
10h 30m
Waning Crescent, 1% of the Moon is Illuminated
Nov 2
Waning Crescent
Nov 3
New
Nov 9
First Quarter
Nov 17
Full
Nov 25
Last Quarter

Hourly Weather History & Observations

Time (MDT) Temp. Windchill Dew Point Humidity Pressure Visibility Wind Dir Wind Speed Gust Speed Precip Events Conditions
12:52 AM 30.0 °F 24.1 °F 19.0 °F 64% 30.23 in 10.0 mi SW 5.8 mph - N/A   Clear
1:52 AM 28.0 °F 21.7 °F 18.0 °F 66% 30.21 in 10.0 mi South 5.8 mph - N/A   Clear
2:52 AM 28.0 °F 19.3 °F 19.0 °F 69% 30.20 in 10.0 mi SW 9.2 mph - N/A   Clear
3:52 AM 25.0 °F 18.1 °F 18.0 °F 75% 30.19 in 10.0 mi SSW 5.8 mph - N/A   Clear
4:52 AM 23.0 °F 12.4 °F 16.0 °F 74% 30.17 in 10.0 mi South 10.4 mph - N/A   Clear
5:52 AM 27.0 °F 18.0 °F 19.9 °F 75% 30.14 in 10.0 mi South 9.2 mph - N/A   Clear
6:52 AM 27.0 °F 16.7 °F 19.9 °F 75% 30.17 in 10.0 mi South 11.5 mph - N/A   Clear
7:52 AM 24.1 °F 16.0 °F 18.0 °F 77% 30.19 in 10.0 mi South 6.9 mph - N/A   Clear
8:52 AM 28.0 °F 20.0 °F 21.0 °F 75% 30.19 in 10.0 mi South 8.1 mph - N/A   Clear
9:52 AM 37.9 °F 29.6 °F 25.0 °F 60% 30.14 in 10.0 mi South 13.8 mph - N/A   Clear
10:52 AM 51.1 °F - 24.1 °F 35% 30.07 in 10.0 mi SSW 21.9 mph - N/A   Clear
11:52 AM 59.0 °F - 19.9 °F 22% 30.04 in 10.0 mi SSW 25.3 mph - N/A   Clear
12:52 PM 62.1 °F - 19.0 °F 19% 30.02 in 10.0 mi WSW 19.6 mph 25.3 mph N/A   Clear
1:52 PM 64.9 °F - 16.0 °F 15% 29.97 in 10.0 mi SW 20.7 mph - N/A   Clear
2:52 PM 66.9 °F - 15.1 °F 14% 29.92 in 10.0 mi SSW 19.6 mph 29.9 mph N/A   Clear
3:52 PM 66.9 °F - 14.0 °F 13% 29.91 in 10.0 mi SW 18.4 mph 27.6 mph N/A   Clear
4:52 PM 66.9 °F - 8.1 °F 10% 29.90 in 10.0 mi SSW 19.6 mph - N/A   Clear
5:52 PM 64.0 °F - 8.1 °F 11% 29.86 in 10.0 mi SSW 18.4 mph - N/A   Clear
6:52 PM 57.0 °F - 12.0 °F 17% 29.89 in 10.0 mi SSW 13.8 mph - N/A   Clear
7:52 PM 54.0 °F - 16.0 °F 22% 29.90 in 10.0 mi SSW 18.4 mph - N/A   Clear
8:52 PM 52.0 °F - 17.1 °F 25% 29.89 in 10.0 mi South 16.1 mph - N/A   Clear
9:52 PM 48.0 °F - 19.0 °F 32% 29.87 in 10.0 mi South 9.2 mph - N/A   Clear
10:52 PM 45.0 °F 38.9 °F 19.0 °F 36% 29.84 in 10.0 mi SSW 12.7 mph - N/A   Clear
11:52 PM 45.0 °F 36.6 °F 18.0 °F 34% 29.79 in 10.0 mi SSW 21.9 mph - N/A   Clear